Tracking 18816 objects as of 17-October-2017
HD Live streaming from Space Station
objects crossing your sky now

ANNA 1B

Track ANNA 1B now!
10-day predictions
ANNA 1B is classified as:


NORAD ID: 446
Int'l Code: 1962-060A
Perigee: 1,081.4 km
Apogee: 1,186.9 km
Inclination: 50.1 °
Period: 107.8 minutes
Semi major axis: 7505 km
RCS: 0.8414 m2 (medium)
Launch date: October 31, 1962
Source: United States (US)
Launch site: AIR FORCE EASTERN TEST RANGE (AFETR)
aabbcc
Your satellite tracking list
Your tracking list is empty





NASA's NSSDC Master Catalog

Two Line Element Set (TLE):
1 00446U 62060A   17290.49162000 -.00000102  00000-0  47475-4 0  9994
2 00446  50.1414 272.9066 0070287 342.7595 171.5622 13.35260820681281
Source of the keplerian elements: AFSPC